DW1869 Weather Reports


time (UTC)temp
C
wind
direction
speed
KPH
gust
KPH
rain 1hr
cm
rain 24hr
cm
rain mn
cm
humidity
%
barometer
mb
20260510201548 27 309 0.0 9.7 0.00 0.00 0.00 39 1015.0
20260510200112 27 225 1.6 6.4 0.00 0.00 0.00 37 1014.9
20260510194555 27 30 1.6 6.4 0.00 0.00 0.00 38 1015.1
20260510193059 26 115 0.0 6.4 0.00 0.00 0.00 39 1015.2
20260510191554 26 86 1.6 4.8 0.00 0.00 0.00 37 1015.5
20260510190046 26 331 1.6 6.4 0.00 0.00 0.00 43 1015.7
20260510184542 26 0 0.0 8.0 0.00 0.00 0.00 40 1015.7
20260510183053 26 338 1.6 4.8 0.00 0.00 0.00 41 1015.9
20260510181549 26 244 1.6 4.8 0.00 0.00 0.00 43 1016.1
20260510180053 26 0 0.0 6.4 0.00 0.00 0.00 41 1016.1
20260510174553 26 0 1.6 6.4 0.00 0.00 0.00 43 1016.2
20260510173102 26 169 4.8 8.0 0.00 0.00 0.00 42 1016.2
20260510171556 26 195 1.6 4.8 0.00 0.00 0.00 39 1016.3
20260510170101 26 211 1.6 6.4 0.00 0.00 0.00 38 1016.3
20260510164548 27 0 1.6 6.4 0.00 0.00 0.00 38 1016.4
20260510163044 26 182 1.6 6.4 0.00 0.00 0.00 36 1016.7
20260510161552 26 297 1.6 8.0 0.00 0.00 0.00 44 1016.7
20260510160055 26 88 0.0 4.8 0.00 0.00 0.00 48 1016.7
20260510154559 25 177 1.6 4.8 0.00 0.00 0.00 54 1016.9
20260510153051 24 0 0.0 3.2 0.00 0.00 0.00 57 1017.2
20260510151600 24 0 0.0 6.4 0.00 0.00 0.00 62 1016.9
20260510150054 24 49 1.6 3.2 0.00 0.00 0.00 54 1016.7
20260510144552 23 0 0.0 4.8 0.00 0.00 0.00 65 1016.9
20260510143051 22 227 0.0 4.8 0.00 0.00 0.00 72 1016.7
20260510141600 22 0 0.0 3.2 0.00 0.00 0.00 74 1016.6
20260510140052 20 0 0.0 1.6 0.00 0.00 0.00 80 1016.8
20260510134559 19 0 0.0 3.2 0.00 0.00 0.00 83 1016.8
20260510133101 18 0 0.0 1.6 0.00 0.00 0.00 86 1016.8
20260510131600 18 329 1.6 4.8 0.00 0.00 0.00 88 1016.7
20260510130049 17 0 0.0 3.2 0.00 0.00 0.00 91 1016.5
20260510124557 17 0 0.0 1.6 0.00 0.00 0.00 92 1016.2
20260510123100 16 0 0.0 1.6 0.00 0.00 0.00 94 1016.1
20260510121551 15 0 0.0 1.6 0.00 0.00 0.00 94 1016.1
20260510120049 15 0 0.0 0.0 0.00 0.00 0.00 94 1015.9
20260510114547 14 0 0.0 0.0 0.00 0.00 0.00 94 1015.8
20260510113051 14 0 0.0 0.0 0.00 0.00 0.00 93 1015.8
20260510111546 14 0 0.0 0.0 0.00 0.00 0.00 94 1015.3
20260510110049 13 0 0.0 0.0 0.00 0.00 0.00 93 1015.1
20260510104550 13 0 0.0 0.0 0.00 0.00 0.00 93 1014.8
20260510103050 13 0 0.0 0.0 0.00 0.00 0.00 93 1014.5
20260510101552 13 0 0.0 0.0 0.00 0.00 0.00 93 1014.3
20260510100050 14 0 0.0 0.0 0.00 0.00 0.00 93 1014.3
20260510094553 14 0 0.0 0.0 0.00 0.00 0.00 93 1014.1
20260510093051 14 0 0.0 0.0 0.00 0.00 0.00 93 1013.8
20260510091551 14 0 0.0 0.0 0.00 0.00 0.00 93 1013.9
20260510090048 14 0 0.0 0.0 0.00 0.00 0.00 93 1013.5
20260510084546 14 0 0.0 0.0 0.00 0.00 0.00 93 1013.3
20260510083056 14 0 0.0 0.0 0.00 0.00 0.00 93 1013.5
20260510081554 15 0 0.0 0.0 0.00 0.00 0.00 93 1013.3
20260510080050 15 0 0.0 0.0 0.00 0.00 0.00 93 1013.3
20260510074549 15 0 0.0 1.6 0.00 0.00 0.00 93 1013.3
20260510073106 15 0 0.0 0.0 0.00 0.00 0.00 93 1013.2
20260510071559 15 0 0.0 0.0 0.00 0.00 0.00 93 1013.1
20260510070054 15 0 0.0 0.0 0.00 0.00 0.00 92 1013.1
20260510064600 15 0 0.0 0.0 0.00 0.00 0.00 92 1013.3
20260510063058 15 0 0.0 0.0 0.00 0.00 0.00 92 1012.9
20260510061555 15 0 0.0 0.0 0.00 0.00 0.00 92 1013.3
20260510060049 15 0 0.0 0.0 0.00 0.00 0.00 92 1013.6
20260510054551 15 0 0.0 0.0 0.00 0.00 0.00 92 1013.5
20260510053053 15 0 0.0 0.0 0.00 0.00 0.00 92 1013.6
20260510051557 15 0 0.0 1.6 0.00 0.00 0.00 92 1013.8
20260510050052 15 0 0.0 0.0 0.00 0.00 0.00 92 1013.8
20260510044552 15 0 0.0 0.0 0.00 0.00 0.00 91 1014.0
20260510043107 15 0 0.0 0.0 0.00 0.00 0.00 91 1013.7
20260510041557 16 0 0.0 0.0 0.00 0.00 0.00 91 1013.7
20260510034551 16 0 0.0 0.0 0.00 0.00 0.00 91 1013.6
20260510033054 16 0 0.0 0.0 0.00 0.00 0.00 91 1013.5
20260510031556 16 0 0.0 1.6 0.00 0.00 0.00 91 1013.4
20260510030051 16 0 0.0 0.0 0.00 0.00 0.00 91 1013.3
20260510024551 16 0 0.0 0.0 0.00 0.00 0.00 90 1013.4
20260510023054 16 0 0.0 0.0 0.00 0.00 0.00 90 1013.3
20260510021550 16 0 0.0 1.6 0.00 0.00 0.00 90 1013.5
20260510020049 16 0 0.0 0.0 0.00 0.00 0.00 89 1013.2
20260510014559 16 0 0.0 0.0 0.00 0.00 0.00 89 1013.1
20260510013049 17 0 0.0 0.0 0.00 0.00 0.00 88 1012.8
20260510011551 17 0 0.0 0.0 0.00 0.00 0.00 87 1012.4
20260510010051 17 0 0.0 0.0 0.00 0.00 0.00 86 1012.4
20260510004552 18 0 0.0 0.0 0.00 0.00 0.00 85 1012.3
20260510003057 18 0 0.0 0.0 0.00 0.00 0.00 84 1012.4
20260510001556 19 0 0.0 0.0 0.00 0.00 0.00 83 1012.2
20260510000055 20 0 0.0 0.0 0.00 0.00 0.00 82 1012.1
20260509234552 20 0 0.0 0.0 0.00 0.00 0.00 80 1011.6
20260509233051 20 0 0.0 1.6 0.00 0.00 0.00 79 1011.6
20260509231554 21 0 0.0 4.8 0.00 0.00 0.00 75 1011.5
20260509230056 21 0 0.0 4.8 0.00 0.00 0.00 74 1011.2
20260509224557 21 172 0.0 11.3 0.00 0.00 0.00 73 1011.3
20260509223050 21 176 3.2 9.7 0.00 0.00 0.00 72 1011.2
20260509221600 22 159 1.6 14.5 0.00 0.00 0.00 72 1011.3
20260509220048 22 183 1.6 12.9 0.00 0.00 0.00 71 1011.5
20260509214548 21 256 0.0 8.0 0.00 0.00 0.00 71 1011.4
20260509213049 21 173 1.6 11.3 0.00 0.00 0.00 71 1011.3
20260509211546 21 155 0.0 8.0 0.00 0.00 0.00 72 1011.0
20260509210049 21 163 1.6 11.3 0.00 0.00 0.00 70 1011.2
20260509204551 21 235 1.6 11.3 0.00 0.00 0.00 70 1011.3
20260509203046 21 101 1.6 12.9 0.00 0.00 0.00 69 1011.3